[[{"header":{"parameterUnit":"m.s-1","parameterCategory":1,"la1":30.2991,"la2":30.254,"lo1":-89.0895,"lo2":-89.0444,"dy":0.0017,"dx":0.0017,"nx":28,"ny":28,"refTime":"2025-03-17T03:00:00:Z","depth":0,"parameterNumber":2,"parameterNumberName":"U-component_of_WINDS"},"data":[0,0,0,0,0,0,0,0,0,0,0,0,0,0,0,0,0,0,0,0,0,0,0,0,0,0,0,0,0,0,0,0,0,0,0,0,0,0,0,0,0,0,0,0,0,0,0,0,0,0,0,0,0,0,0,0,0,0,2.6634,2.6635,0,2.6738,2.6739,2.6741,2.6742,2.674,2.6739,2.6738,2.6847,2.6851,2.6856,0,0,0,0,0,0,0,0,0,0,0,0,0,2.6442,2.6445,2.6634,2.6635,2.6637,2.6738,2.6739,2.6741,2.6742,2.674,2.6739,2.6737,2.6846,2.6851,2.6856,0,0,0,0,0,0,0,0,0,0,0,0,0,2.6533,2.6446,2.6634,2.6649,2.6652,2.6738,2.674,2.6741,2.6742,2.674,2.6738,2.6736,2.6844,2.685,2.6857,2.6935,0,0,2.6876,2.6878,0,0,0,0,0,0,0,0,2.6528,2.6541,2.6646,2.6648,2.6651,2.6725,2.6712,2.6806,2.6743,2.6708,2.6738,2.6735,2.6808,2.6818,2.6842,2.694,2.6945,2.6876,2.688,2.6883,2.6885,0,0,0,0,0,0,0,2.6522,2.6536,2.6675,2.6647,2.6651,2.6653,2.6664,2.673,2.6768,2.6711,2.6711,2.6723,2.681,2.6835,2.6844,2.6947,2.6876,2.6882,2.6886,2.6888,2.7119,2.7122,0,0,0,0,0,0,2.6512,2.6531,2.6672,2.6679,2.6583,2.6658,2.667,2.6703,2.6767,2.6775,2.6725,2.6723,2.6826,2.6837,2.6848,2.6947,2.6883,2.6889,2.6892,2.7117,2.712,2.7122,0,0,0,0,0,0,2.6508,2.6524,2.6668,2.6605,2.6623,2.6663,2.6701,2.6706,2.6732,2.6778,2.6785,2.6744,2.6825,2.6839,2.6914,2.695,2.6891,2.6897,2.7114,2.7118,2.7121,2.7143,0,0,0,0,0,0,2.6502,2.6523,2.6552,2.6605,2.6627,2.6731,2.6703,2.671,2.6743,2.6741,2.6798,2.6805,2.6824,2.6905,2.692,2.6958,2.6902,2.7111,2.7116,2.712,2.7139,2.7147,2.7153,0,0,0,0,0,2.6495,2.6554,2.6553,2.657,2.6663,2.6733,2.6745,2.6764,2.6745,2.6776,2.6806,2.6804,2.6944,2.6912,2.693,2.697,2.7109,2.7114,2.712,2.7136,2.7145,2.7153,0,0,0,0,0,0,2.6503,2.6561,2.6561,2.6638,2.6681,2.6733,2.6771,2.6773,2.6823,2.6819,2.6843,2.6856,2.6931,2.6958,2.6922,2.7051,2.7024,2.7033,2.7031,2.704,2.7047,2.7039,2.6907,0,0,0,0,0,2.6514,2.6564,2.6612,2.6676,2.6697,2.6731,2.6762,2.6773,2.6819,2.6837,2.6872,2.6917,2.6972,2.7007,2.706,2.7143,2.7157,2.718,2.7187,2.7192,2.72,2.725,2.7261,2.714,2.714,2.714,0,0,2.6537,2.6575,2.6605,2.6679,2.6713,2.6767,2.6746,2.6803,2.6843,2.6846,2.6919,2.6947,2.6999,2.7079,2.7117,2.7104,2.7237,2.7199,2.7203,2.7208,2.7256,2.7268,2.7278,2.7144,2.7143,2.7142,0,0,2.6606,2.6638,2.6696,2.6732,2.6784,2.6806,2.682,2.6873,2.6891,2.6965,2.6969,2.7019,2.7111,2.7149,2.7181,2.7268,2.7269,2.7284,2.7322,2.7369,2.7379,2.7388,2.7421,2.7432,2.7292,2.7292,2.7292,0,2.6628,2.6707,2.6726,2.6784,2.6818,2.6822,2.6883,2.6916,2.6983,2.7007,2.6992,2.7111,2.7146,2.7237,2.7258,2.7283,2.7302,2.7278,2.7376,2.7385,2.7393,2.7425,2.7437,2.7294,2.7293,2.7293,2.7293,0,2.6733,2.6789,2.6829,2.6894,2.6932,2.6991,2.7021,2.7058,2.7067,2.7091,2.7168,2.7211,2.7274,2.7296,2.7305,2.7389,2.7381,2.737,2.7344,2.7406,2.7437,2.7449,2.7296,2.7295,2.7295,2.7294,0,0,2.6809,2.6885,2.69,2.6931,2.699,2.7034,2.7094,2.7155,2.7188,2.7234,2.7287,2.7367,2.7359,2.7395,2.7409,2.745,2.752,2.7436,2.7437,2.7452,2.7618,2.7627,2.764,2.7521,2.7523,2.7525,2.7615,0,2.6886,2.6992,2.7012,2.7105,2.7159,2.7165,2.7218,2.7262,2.7287,2.7337,2.7366,2.7423,2.7406,2.7429,2.747,2.7502,2.7554,2.7496,2.7572,2.7575,2.756,2.7656,2.7664,2.7747,2.7627,2.7629,2.763,0,2.699,2.704,2.7138,2.7193,2.7216,2.7263,2.7322,2.7369,2.742,2.7435,2.7477,2.7487,2.7552,2.7522,2.7615,2.7575,2.7608,2.7629,2.7632,2.7641,2.7607,2.7669,2.7773,2.7787,2.7649,2.7647,2.7646,0,2.7038,2.713,2.7201,2.7227,2.7292,2.7326,2.7355,2.7403,2.7439,2.7491,2.7516,2.7575,2.7608,2.7655,2.7681,2.7657,2.7773,2.7744,2.779,2.7789,2.7815,2.7813,2.7927,2.7833,2.7833,2.7833,2.7832,0,2.7123,2.7184,2.7224,2.7268,2.7337,2.7361,2.7429,2.7458,2.7502,2.7553,2.7563,2.7611,2.7643,2.7697,2.7718,2.7793,2.7807,2.7824,2.7829,2.7824,2.7822,2.7846,2.7842,2.7836,2.7835,2.7835,2.7834,0,2.7189,2.7218,2.7297,2.7352,2.7368,2.7417,2.7465,2.751,2.7536,2.7601,2.7618,2.766,2.7724,2.7755,2.7834,2.7849,2.7935,2.7935,2.7917,2.792,2.7964,2.796,2.8099,2.812,2.8011,2.8011,2.8012,0,2.7241,2.7288,2.7349,2.7384,2.7414,2.747,2.7507,2.7533,2.7572,2.7635,2.7673,2.7737,2.779,2.7893,2.7931,2.7993,2.7996,2.8041,2.8006,2.8,2.8,2.7997,2.8003,2.8048,2.8049,2.8049,2.805,0,2.7333,2.7346,2.7398,2.7457,2.7502,2.7549,2.7597,2.7625,2.7659,2.7703,2.7768,2.781,2.7892,2.7957,2.8022,2.8054,2.8059,2.8061,2.8075,2.8071,2.8059,2.8068,2.7936,2.8058,2.8057,2.8056,2.8056,2.8056,2.7395,2.7438,2.7488,2.7548,2.7586,2.7631,2.7676,2.7708,2.7763,2.7831,2.7844,2.7914,2.7967,2.8054,2.8089,2.8146,2.8136,2.8156,2.8161,2.8166,2.817,2.8049,2.8157,2.8157,2.8157,2.8157,2.8157,0,2.7489,2.7522,2.7576,2.7642,2.769,2.769,2.7743,2.7783,2.7844,2.7892,2.7945,2.8022,2.8086,2.813,2.8195,2.8232,2.8237,2.8249,2.8247,2.8255,2.8174,2.8156,2.8244,2.8244,2.8244,2.8244,2.8244,2.8244,2.7543,2.7617,2.7636,2.773,2.7763,2.7831,2.7862,2.7904,2.7943,2.8028,2.8081,2.8109,2.8157,2.8226,2.8286,2.8297,2.8322,2.8334,2.8346,2.8269,2.826,2.8252,2.8235,2.8339,2.8339,2.8423,2.8424,2.8425]},{"header":{"parameterUnit":"m.s-1","parameterCategory":1,"la1":30.2991,"la2":30.254,"lo1":-89.0895,"lo2":-89.0444,"dy":0.0017,"dx":0.0017,"nx":28,"ny":28,"refTime":"2025-03-17T03:00:00:Z","depth":0,"parameterNumber":3,"parameterNumberName":"V-component_of_WINDS"},"data":[0,0,0,0,0,0,0,0,0,0,0,0,0,0,0,0,0,0,0,0,0,0,0,0,0,0,0,0,0,0,0,0,0,0,0,0,0,0,0,0,0,0,0,0,0,0,0,0,0,0,0,0,0,0,0,0,0,0,-1.5837,-1.5838,0,-1.593,-1.5931,-1.5932,-1.6044,-1.6046,-1.6048,-1.605,-1.6142,-1.6143,-1.6144,0,0,0,0,0,0,0,0,0,0,0,0,0,-1.5757,-1.5758,-1.5836,-1.5838,-1.5839,-1.5929,-1.5931,-1.5932,-1.6044,-1.6046,-1.6048,-1.605,-1.6142,-1.6143,-1.6144,0,0,0,0,0,0,0,0,0,0,0,0,0,-1.5814,-1.5758,-1.5836,-1.5906,-1.5913,-1.5929,-1.5931,-1.5932,-1.6044,-1.6046,-1.6049,-1.6051,-1.6142,-1.6143,-1.6144,-1.6099,0,0,-1.6148,-1.6149,0,0,0,0,0,0,0,0,-1.5811,-1.5817,-1.5894,-1.5901,-1.5909,-1.5978,-1.5937,-1.5988,-1.6043,-1.5994,-1.605,-1.6053,-1.6085,-1.6092,-1.6103,-1.6103,-1.6107,-1.6148,-1.6149,-1.615,-1.615,0,0,0,0,0,0,0,-1.5807,-1.5814,-1.5873,-1.5895,-1.5904,-1.5933,-1.5944,-1.5947,-1.6024,-1.5998,-1.6007,-1.6016,-1.609,-1.6102,-1.6106,-1.6109,-1.6148,-1.6149,-1.615,-1.6151,-1.608,-1.6078,0,0,0,0,0,0,-1.5793,-1.581,-1.587,-1.5876,-1.5866,-1.5932,-1.5944,-1.5953,-1.6024,-1.6037,-1.6014,-1.6021,-1.6098,-1.6105,-1.611,-1.6064,-1.6149,-1.6151,-1.6151,-1.6083,-1.608,-1.6077,0,0,0,0,0,0,-1.579,-1.5797,-1.5867,-1.5845,-1.5856,-1.593,-1.5939,-1.5954,-1.5965,-1.6036,-1.605,-1.6012,-1.6101,-1.6108,-1.6102,-1.6068,-1.6151,-1.6152,-1.6086,-1.6082,-1.6078,-1.5969,0,0,0,0,0,0,-1.5788,-1.5795,-1.5778,-1.5844,-1.5857,-1.5856,-1.5937,-1.5954,-1.5968,-1.5978,-1.6037,-1.605,-1.6103,-1.6099,-1.6103,-1.6071,-1.6153,-1.6089,-1.6084,-1.608,-1.5976,-1.5962,-1.595,0,0,0,0,0,-1.5784,-1.5743,-1.5777,-1.5784,-1.5837,-1.5854,-1.5862,-1.5924,-1.5964,-1.5948,-1.5994,-1.6048,-1.6072,-1.6098,-1.6103,-1.6071,-1.6092,-1.6086,-1.608,-1.5982,-1.5964,-1.595,0,0,0,0,0,0,-1.5669,-1.5752,-1.5791,-1.577,-1.5804,-1.5873,-1.5854,-1.5904,-1.5927,-1.5935,-1.6012,-1.6025,-1.601,-1.604,-1.6068,-1.6033,-1.609,-1.6085,-1.6013,-1.5997,-1.5985,-1.5977,-1.6154,0,0,0,0,0,-1.5642,-1.5649,-1.5721,-1.5695,-1.571,-1.5779,-1.5789,-1.5835,-1.5873,-1.5888,-1.5933,-1.5968,-1.5984,-1.5993,-1.6011,-1.5981,-1.5997,-1.5962,-1.5949,-1.5938,-1.5932,-1.5922,-1.5908,-1.6058,-1.6058,-1.6058,0,0,-1.5584,-1.5631,-1.563,-1.5673,-1.5705,-1.5711,-1.5791,-1.5792,-1.5798,-1.5888,-1.5886,-1.592,-1.5965,-1.5947,-1.5942,-1.5972,-1.5895,-1.5931,-1.5921,-1.5922,-1.5914,-1.59,-1.5887,-1.6054,-1.6054,-1.6055,0,0,-1.5482,-1.5518,-1.5501,-1.5532,-1.5581,-1.5628,-1.5624,-1.5686,-1.5713,-1.5712,-1.5781,-1.5789,-1.5814,-1.5843,-1.5862,-1.5775,-1.5826,-1.5779,-1.571,-1.5699,-1.5687,-1.5677,-1.5647,-1.5636,-1.5773,-1.5773,-1.5773,0,-1.5404,-1.5416,-1.5486,-1.5485,-1.5502,-1.5587,-1.5571,-1.5598,-1.5649,-1.566,-1.5693,-1.5729,-1.5765,-1.5757,-1.5736,-1.5748,-1.5746,-1.5772,-1.5683,-1.5674,-1.5665,-1.5638,-1.5627,-1.5767,-1.5768,-1.5769,-1.5769,0,-1.5318,-1.5325,-1.5306,-1.5356,-1.5372,-1.5362,-1.5432,-1.544,-1.5485,-1.5529,-1.5529,-1.5575,-1.5605,-1.5607,-1.565,-1.5606,-1.5624,-1.5669,-1.5728,-1.5644,-1.562,-1.561,-1.5759,-1.5761,-1.5763,-1.5764,0,0,-1.5144,-1.5235,-1.5226,-1.5251,-1.5313,-1.532,-1.5316,-1.5347,-1.5353,-1.5386,-1.5386,-1.5407,-1.5451,-1.5472,-1.552,-1.551,-1.5441,-1.5557,-1.556,-1.5535,-1.5397,-1.5362,-1.5349,-1.5476,-1.5474,-1.5473,-1.5393,0,-1.5053,-1.5052,-1.5117,-1.5098,-1.5106,-1.5188,-1.5186,-1.5223,-1.5265,-1.5279,-1.5325,-1.5339,-1.5395,-1.5408,-1.5402,-1.545,-1.5414,-1.5457,-1.5476,-1.5476,-1.5462,-1.5336,-1.5298,-1.5221,-1.5384,-1.5383,-1.5382,0,-1.4946,-1.4976,-1.4958,-1.5023,-1.5029,-1.5025,-1.5061,-1.5073,-1.5119,-1.515,-1.5175,-1.5231,-1.5233,-1.5289,-1.5295,-1.5322,-1.5335,-1.536,-1.5359,-1.5362,-1.5423,-1.5336,-1.5198,-1.5186,-1.5367,-1.5368,-1.5369,0,-1.4822,-1.4857,-1.4852,-1.487,-1.4946,-1.4942,-1.4973,-1.5022,-1.5037,-1.5068,-1.508,-1.511,-1.5127,-1.515,-1.5213,-1.5248,-1.5212,-1.5273,-1.5238,-1.5236,-1.5225,-1.5225,-1.5087,-1.5233,-1.5233,-1.5234,-1.5234,0,-1.4714,-1.47,-1.4798,-1.4794,-1.4782,-1.4857,-1.4843,-1.4882,-1.4925,-1.4932,-1.5005,-1.5009,-1.5093,-1.5108,-1.5157,-1.5155,-1.5162,-1.5188,-1.5201,-1.5181,-1.5178,-1.5189,-1.5196,-1.5231,-1.5231,-1.5232,-1.5232,0,-1.4572,-1.4636,-1.4636,-1.4709,-1.4727,-1.4715,-1.4778,-1.4778,-1.4826,-1.4833,-1.4839,-1.4914,-1.4935,-1.5001,-1.5038,-1.5072,-1.5055,-1.508,-1.504,-1.5048,-1.501,-1.5013,-1.4875,-1.4861,-1.5015,-1.5013,-1.5012,0,-1.4498,-1.449,-1.4562,-1.4573,-1.4601,-1.4616,-1.4633,-1.4708,-1.4723,-1.4777,-1.4771,-1.4799,-1.4824,-1.4855,-1.4912,-1.4942,-1.4969,-1.4919,-1.4974,-1.4955,-1.4969,-1.4969,-1.4969,-1.4906,-1.4904,-1.4902,-1.4901,0,-1.4361,-1.4394,-1.4416,-1.445,-1.4469,-1.4499,-1.4534,-1.4538,-1.4622,-1.4636,-1.4659,-1.4679,-1.4719,-1.4746,-1.4786,-1.4819,-1.4874,-1.4884,-1.4878,-1.4857,-1.4834,-1.4847,-1.5007,-1.4886,-1.4888,-1.4889,-1.4889,-1.489,-1.4251,-1.4249,-1.43,-1.4323,-1.4358,-1.4389,-1.4394,-1.4443,-1.4464,-1.4503,-1.4547,-1.4565,-1.4615,-1.4674,-1.4704,-1.4721,-1.475,-1.474,-1.4738,-1.4735,-1.4726,-1.4832,-1.4728,-1.4729,-1.4729,-1.4729,-1.473,0,-1.4119,-1.4157,-1.4177,-1.4224,-1.4243,-1.4295,-1.4337,-1.4349,-1.4365,-1.4407,-1.4432,-1.446,-1.4487,-1.4549,-1.4582,-1.4584,-1.461,-1.459,-1.459,-1.4598,-1.4697,-1.4699,-1.4568,-1.4568,-1.4568,-1.4568,-1.4568,-1.4568,-1.4052,-1.4051,-1.4091,-1.4108,-1.4147,-1.4167,-1.4186,-1.4216,-1.425,-1.4279,-1.4303,-1.4343,-1.4393,-1.4432,-1.446,-1.4478,-1.4487,-1.4458,-1.4484,-1.4575,-1.459,-1.4605,-1.4608,-1.4459,-1.4459,-1.4384,-1.4383,-1.4382]}]]